Regional Weather Roundup
Issued by NWS

Home | Current Version | Previous Version | Graphics & Text | Print | Product List | Glossary On
Versions: 1 2 3 4 5 6 7 8 9 10 11 12 13 14 15 16 17 18 19 20 21 22 23 24 25 26 27 28 29 30 31 32 33 34 35 36 37 38 39 40 41 42 43 44 45 46 47 48 49 50
000
ASUS45 KBOU 250907
RWRCO

WEATHER ROUNDUP FOR COLORADO
NATIONAL WEATHER SERVICE DENVER/BOULDER CO
300 AM MDT MON SEP 25 2017

NOTE: "FAIR" INDICATES FEW OR NO CLOUDS BELOW 12000 FEET WITH NO
SIGNIFICANT WEATHER AND/OR OBSTRUCTIONS TO VISIBILITY.

COZ001>005-013-030-031-251000-
...NORTHWEST COLORADO...

CITY           SKY/WX    TMP DP  RH WIND       PRES   REMARKS
CRAIG          FAIR      30  26  85 NE3       30.12R
HAYDEN         FAIR      30  27  88 SW3       30.13S
MEEKER         FAIR      29  26  89 CALM      30.11S
RABBIT EARS PA FAIR      27  23  86 SW6       30.16S WCI  20
STEAMBOAT SPGS FAIR      29  28  98 CALM      30.11S
WALDEN         FAIR      30  27  86 SE6       30.13S WCI  24
$$

COZ006>008-011-251000-
...WEST CENTRAL VALLEYS...

CITY           SKY/WX    TMP DP  RH WIND       PRES   REMARKS
GRAND JUNCTION FAIR      39  31  72 CALM      30.05S
MONTROSE       FAIR      36  27  69 SE9       30.10S
EAGLE          FAIR      31  25  78 SE3       30.13F
RIFLE          FAIR      37  31  78 CALM      30.08F
DELTA          NOT AVBL
NUCLA          FAIR      34  25  69 E8        30.11F WCI  27
$$

COZ017>023-064>068-251000-
...SOUTHWEST COLORADO...

CITY           SKY/WX    TMP DP  RH WIND       PRES   REMARKS
DURANGO        FAIR      32  22  66 N6        30.05F WCI  26
CORTEZ         FAIR      29  26  89 E3        30.06S
PAGOSA SPRINGS CLOUDY    39  28  65 CALM      30.08F
TELLURIDE      FAIR      31  20  64 S5        30.14F WCI  26
WOLF CREEK PAS CLOUDY    28  18  64 S10       30.25S WCI  19
$$

COZ009-010-012-014-032>034-037-058>063-251000-
...CENTRAL COLORADO...

CITY           SKY/WX    TMP DP  RH WIND       PRES   REMARKS
ASPEN          FAIR      29  22  75 S5        30.11F WCI  24
BUENA VISTA    CLOUDY    40  28  60 CALM      30.10R
COPPER MTN     FAIR      32  14  47 MISG      30.19F
BERTHOUD PASS  FAIR      21  12  68 W9        30.20F WCI  11
COTTONWOOD PAS CLOUDY    41  23  48 SE8       30.14S
GUNNISON       FAIR      28  17  63 CALM      30.13S
KREMMLING      FAIR      34  28  80 CALM      30.13R
LEADVILLE      FAIR      23  18  81 NE6       30.13F WCI  16
MONARCH PASS   CLOUDY    27  18  69 SW13      30.30S WCI  16
SALIDA         CLOUDY    44  29  57 NW6       30.16S
SUNLIGHT       FAIR      25  19  80 S3        30.21F
WILKERSON PASS MOCLDY    30  19  64 SW5       30.22R WCI  25
$$

COZ069>075-251000-
...SAN LUIS VALLEY/SANGRE DE CRISTO MOUNTAINS...

CITY           SKY/WX    TMP DP  RH WIND       PRES   REMARKS
ALAMOSA        CLOUDY    36  30  79 CALM      30.06F
DEL NORTE      CLOUDY    40  24  53 NW6       30.08S
LA VETA PASS   CLOUDY    39  21  48 S20       30.28R
SAGUACHE       CLOUDY    43  21  42 NW12      30.09F
$$

COZ035-036-038>040-251000-
...NORTHERN COLORADO FRONT RANGE...

CITY           SKY/WX    TMP DP  RH WIND       PRES   REMARKS
DENVER INTL AP CLOUDY    45  43  93 NE9       30.08S
DMNS CITY PARK   N/A     45  45  99 NE9G18    30.08S
AURORA         DRZL/FOG  44  44 100 NE10      30.08S VSB 1
FRONT RANGE AP CLOUDY    45  45 100 NE9G21    30.09S FOG
ERIE MUNI ARPT CLOUDY    46  43  88 CALM      30.13F
BOULDER MUN AP MOCLDY    45  43  93 W6        30.07F
CENTENNIAL     CLOUDY    45  45 100 N7        30.07S
BROOMFIELD     CLOUDY    45  43  93 N6        30.09S
FORT COLLINS   FAIR      41  39  93 N5        30.10R
LONGMONT       CLOUDY    47  45  91 CALM      30.10S
$$

COZ041-046-047-076>085-087-088-251000-
...PIKES PEAK/PALMER DIVIDE AND SOUTHERN FOOTHILLS...

CITY           SKY/WX    TMP DP  RH WIND       PRES   REMARKS
COLO. SPRINGS  MOCLDY    47  43  86 NE10      30.08R
A. F. ACADEMY  MOCLDY    45  43  93 N8        30.06S
SCHRIEVER AFB  FAIR      44  42  93 MISG      30.07R
CHEYENNE MTN   MOCLDY    45  39  81 NW9G18    30.04R
ELLICOTT       MOCLDY   N/A N/A N/A NE16      30.05R
FALCON         CLOUDY    43  42  97 N8        30.09R
FORT CARSON    CLOUDY    48  45  88 N9        30.06R
LIMON            N/A    N/A N/A N/A MISG        N/A
MONUMENT HILL  FOG       41  41 100 N8G16     30.11S VSB 1
CANON CITY     CLOUDY    52  52 100 CALM      30.04R
WALSENBURG     CLOUDY    50  50 100 NE7       30.06R
TRINIDAD       FOG       50  50 100 NE9       30.03R VSB 1
$$

COZ042>045-048>051-090-091-251000-
...NORTHEAST COLORADO...

CITY           SKY/WX    TMP DP  RH WIND       PRES   REMARKS
GREELEY ARPT   FAIR      45  42  89 NW7       30.09R
AKRON          LGT RAIN  46  44  93 NE12      30.07R FOG
BURLINGTON     CLOUDY    50  49  96 N14       30.00F FOG
WRAY           CLOUDY   N/A N/A N/A N9        30.05R
YUMA           CLOUDY    45  45 100 N9        30.05R
STERLING       CLOUDY    46  45  93 NE9       30.06F
HOLYOKE        CLOUDY    52  48  87 N10       30.05S
FORT MORGAN    CLOUDY    46  44  95 NE12G18   30.09R
$$

COZ086-089-092>099-251000-
...SOUTHEAST COLORADO...

CITY           SKY/WX    TMP DP  RH WIND       PRES   REMARKS
PUEBLO         CLOUDY    54  50  86 SE6       30.03R
LA JUNTA       CLOUDY    54  52  93 NE8       29.98F
LAMAR          LGT RAIN  55  52  89 NE7       29.94F
SPRINGFIELD      N/A     53  53 100 NW12      29.94F
$$



USA.gov is the U.S. government's official web portal to all federal, state and local government web resources and services.